Other Public Products
Issued by NWS Grand Forks, ND

Home | Current Version | Previous Version | Graphics & Text | Print | Product List | Glossary On
Versions: 1 2 3 4 5 6 7 8 9 10 11 12 13 14 15 16 17 18 19 20 21 22 23 24 25 26 27 28 29 30 31 32 33 34 35 36 37 38 39 40 41 42 43 44 45 46 47 48 49 50
000
FPUS83 KFGF 111110
OPUFGF
PRAIRIE TO PINES WEATHER ROUNDUP
NATIONAL WEATHER SERVICE EASTERN NORTH DAKOTA/GRAND FORKS ND
600 AM CDT FRI JUL 11 2014

 **SATELLITE DATA USED TO AUGMENT SKY COVER AT AUTOMATED STATIONS**
 *****  WEATHER ACROSS EASTERN NORTH DAKOTA  *****

CITY           SKY/WX    TMP DP  RH WIND       PRES   REMARKS
GRAND FORKS    FOG       63  61  94 CALM      29.80S VSB 1/8
GRAND FORKS AF FOG       60  60 100 CALM      29.81S VSB<1/4
GRAND CITY NWS   N/A     64 N/A N/A MISG        N/A
BUXTON         NOT AVBL
DEVILS LAKE    MOCLDY    64  61  88 N6        29.83R
FARGO          CLEAR     70  67  90 S10       29.81R
WAHPETON ARPT  CLOUDY    70  64  83 CALM      29.83R
$$

 *****  WEATHER ACROSS CENTRAL AND WESTERN NORTH DAKOTA  *****

CITY           SKY/WX    TMP DP  RH WIND       PRES   REMARKS
JAMESTOWN      FOG       62  61  96 CALM      29.82R VSB<1/4
BISMARCK       FOG       60  32  34 E5        29.84R VSB 1/4
MINOT          CLEAR     61  59  93 NW8       29.88R
MINOT AFB      CLEAR     62  62  99 NW8       29.87R
GARRISON         N/A     64  63  96 N10       29.89R
WILLISTON      PTCLDY    60  57  89 NW12      29.97R
DICKINSON      CLEAR     58  56  93 NW7       29.93R
HETTINGER      CLEAR     63  61  93 N5        29.91R
$$

 *****  OTHER OBSERVATIONS NORTHEAST NORTH DAKOTA  *****

CITY           SKY/WX    TMP DP  RH WIND       PRES   REMARKS
WALHALLA         N/A     66  66 100 SW5         N/A
LANGDON        PTSUNNY   57  57 100 CALM      29.83R FOG
CAVALIER       FAIR      63  63 100 SW7       29.79R FOG
GRAFTON        FOG       57  57 100 S3        29.80S VSB<1/4
CANDO          PTSUNNY   61  59  94 CALM      29.84S
FORT TOTTEN    NOT AVBL
ROLLA          FAIR      63  63 100 NW8       29.87R
RUGBY          PTSUNNY   63  63 100 NW3       29.85R
 ***** THE ABOVE OBSERVATIONS ARE NON NWS ARE NOT QUALITY
        CONTROLLED AND MAY MIS-REPORT RAIN FOR SNOW...
$$

 *****  OTHER OBSERVATIONS SOUTHEAST NORTH DAKOTA *****

CITY           SKY/WX    TMP DP  RH WIND       PRES   REMARKS
COOPERSTOWN    NOT AVBL
VALLEY CITY    FOG       59  59 100 CALM      29.83R VSB 3/4
OAKES          NOT AVBL
GWINNER        SUNNY     66  66 100 SW6       29.84R
BUFFALO        NOT AVBL
WYNDMERE       NOT AVBL
 ***** THE ABOVE OBSERVATIONS ARE NON NWS ARE NOT QUALITY
       CONTROLLED AND MAY MIS-REPORT RAIN FOR SNOW...
$$

  *****  WEATHER ACROSS NORTHERN MINNESOTA  *****

CITY           SKY/WX    TMP DP  RH WIND       PRES   REMARKS
FLAG ISLAND    MOCLDY    68  64  88 S10       29.80S FOG
WARROAD        PTCLDY    66  63  88 S8        29.82S
ROSEAU         CLEAR     64  61  88 S7        29.82R HAZE
HALLOCK        CLEAR     63  61  94 S6        29.79S
THF RVR FALLS    N/A    N/A N/A N/A MISG        N/A
HALSTAD          N/A     63  61  92 NW5         N/A
FOSSTON        CLOUDY    66  64  94 CALM      29.85R
BAUDETTE       CLEAR     65  63  93 S3        29.84S
WASKISH        NOT AVBL
CROOKSTON      MOCLDY    66  64  94 CALM      29.83R FOG
$$
  *****  WEATHER ACROSS CENTRAL AND WEST MINNESOTA  *****

CITY           SKY/WX    TMP DP  RH WIND       PRES   REMARKS
BEMIDJI        CLOUDY    66  65  96 S5        29.86S
PARK RAPIDS    CLOUDY    65  65 100 S13       29.88R
WADENA         CLOUDY    64  63  94 SE7       29.88S
DETROIT LAKES  MOCLDY    68  64  88 SE10      29.87R
MOORHEAD       NOT AVBL
FERGUS FALLS   MOCLDY    72  66  83 SE7       29.84R
ELBOW LAKE     NOT AVBL
MORRIS MN      PTCLDY    72  66  83 S5        29.86R
STAPLES        CLOUDY    63  63 100 SE8       29.89S
WHEATON        CLEAR     70  66  88 S8        29.84S
$$
  *****  WEATHER ELSEWHERE ACROSS MINNESOTA  *****

CITY           SKY/WX    TMP DP  RH WIND       PRES   REMARKS
DULUTH         HVY RAIN  63  60  90 S14       29.95S FOG
INTRNTL FALLS  PTCLDY    65  63  93 S5        29.86S
ELY            RAIN      63  61  94 S6        29.95S
CLOQUET        CLOUDY    63  61  94 SE6       29.94F
BRAINERD       HVY RAIN  69  63  81 S10       29.91R
HIBBING        CLOUDY    65  62  90 SE5       29.92F
ALEXANDRIA     CLOUDY    70  66  87 S8        29.90R
SAINT CLOUD    TSTM      68  64  87 NW10G18   29.92R
MINNEAPOLIS    CLOUDY    72  60  66 S9        29.98R
$$

  *****  WEATHER ACROSS SOUTH DAKOTA  *****

CITY           SKY/WX    TMP DP  RH WIND       PRES   REMARKS
SIOUX FALLS    CLOUDY    71  66  84 S20G26    29.91F
BROOKINGS      NOT AVBL
WATERTOWN      MOCLDY    69  66  90 S10       29.87S
HURON          PTCLDY    73  66  78 S8        29.83F
SISSETON         N/A     73  68  84 W17G25    29.80S
ABERDEEN       CLEAR     66  66 100 S6        29.82S
MITCHELL       CLOUDY    72  67  84 S10       29.85F
PIERRE         PTCLDY    66  66 100 SW8       29.86R FOG
MOBRIDGE       PTCLDY    62  61  96 CALM      29.83R FOG
RAPID CITY     MOCLDY    63  60  90 NW5       29.94R
$$

  *****  SOME WEATHER IN NEARBY STATES *****

CITY           SKY/WX    TMP DP  RH WIND       PRES   REMARKS
GLASGOW MT     LGT RAIN  63  61  93 NE7       30.05F
GREAT FALLS MT CLOUDY    62  55  77 N10       30.12R
CHEYENNE WY    PTCLDY    63  55  75 N5        30.15S
SCOTTSBLUFF NE MOCLDY    64  62  93 S3        30.02S
OMAHA NE       CLOUDY    71  64  78 SE14      29.98F
DES MOINES IA  CLOUDY    68  58  70 SE7       30.07R
DAVENPORT IA   CLOUDY    63  56  78 S8        30.16R
CHICAGO IL     PTCLDY    61  51  70 S3        30.19R
EAU CLAIRE WI  CLOUDY    67  61  81 S8        30.06R
LA CROSSE WI   CLOUDY    70  59  68 S13       30.09R
$$

  *****  SOME NATIONAL WEATHER *****

CITY           SKY/WX    TMP DP  RH WIND       PRES   REMARKS
LA GUARDIA NY  MOSUNNY   71  58  63 NE6       30.16R
RALEIGH NC     MOCLDY    70  68  93 CALM      30.14R
ATLANTA GA     CLOUDY    72  69  90 CALM      30.12R
NEW ORLEANS LA PTCLDY    76  73  91 CALM      30.11R
OKLAHOMA CITY  PTCLDY    70  64  81 SE8       30.04R
ALBUQUERQUE NM PTCLDY    73  51  46 NE6       30.15R
SALT LAKE CITY CLOUDY    70  59  68 S6        30.04R
LOS ANGELES CA CLOUDY    66  59  78 SW5       29.96S
BOISE ID       CLEAR     70  46  42 S7        29.88R
SEATTLE WA     CLEAR     61  53  75 N5        29.95R
$$

*** WEATHER ACROSS MANITOBA...SASKATCHEWAN AND ONTARIO ***
                ***ONTARIO***

CITY           SKY/WX    TMP DP  RH WIND       PRES   REMARKS
GERALDTON      PTCLDY    54  48  82 SE3       29.99S
THUNDER BAY    MOCLDY    54  50  87 NE5       29.99R
SIOUX LOOKOUT  MOCLDY    63  59  88 S6        29.85F
TORONTO        SUNNY     59  52  77 N3        30.24R
BIG TROUT LK   PTCLDY    63  54  72 S8        29.70F
PICKLE LAKE    MOCLDY    59  52  77 S9        29.83
DRYDEN         CLEAR     64  61  88 S10       29.84S
KENORA         MOCLDY    66  63  88 S8        29.82S
$$
                *** MANITOBA***

CITY           SKY/WX    TMP DP  RH WIND       PRES   REMARKS
BRANDON        PTCLDY    57  57 100 W6        29.84R
DAUPHIN        CLEAR     59  52  77 W12       29.78S
ISLAND LAKE    PTCLDY    66  63  88 W3        29.63S
PILOT MOUND    NOT AVBL
THE PAS        MOCLDY    59  52  77 W16G22    29.62F
THOMPSON       NOT AVBL
WINNIPEG       MOCLDY    64  63  94 SW2       29.77R
LYNN LAKE      CLOUDY    54  52  94 SW9       29.43F
CHURCHILL      CLOUDY    52  52 100 SE10      29.43F FOG
GILLAM         PTCLDY    59  59 100 SW5       29.52S
$$
                ***SASKATCHEWAN***

CITY           SKY/WX    TMP DP  RH WIND       PRES   REMARKS
ESTEVAN        MOCLDY    57  55  94 NW7       29.95R
KINDERSLEY     CLOUDY    52  48  87 NW12G21   30.07R
LLOYDMINSTER   CLEAR     52  48  87 NW13G18   30.03R
PRINCE ALBERT  MOCLDY    57  52  82 W14       29.84R
REGINA         MOCLDY    54  50  87 W10       29.99R
YORKTON        PTCLDY    59  50  72 W13G20    29.87R



USA.gov is the U.S. government's official web portal to all federal, state and local government web resources and services.